Back to catalog

SL-8 R/B

AlivePO
NORAD 7350·ROCKET BODY·🇷🇺 Russia

Launched Jun 27, 1974 from Plesetsk Cosmodrome

Loading…

Next Passes (next 24 hours)

TLE

FreshSource: Space-Track

Epoch: Sep 14, 2026, 09:17 UTC

1 07350U 74048B   26257.38688133  .00000138  00000-0  12225-3 0  9997
2 07350  82.9431  51.3824 0016270 203.3354 174.3563 13.78045814624566

Track SL-8 R/B in real time with AllMySat

Download on the App Store